This is the latest recevied weather packets stored in our database for station/object OK1TBF-6. If no packets are shown the sender has not sent any weather packets the latest 10 day(s).
| Time | Temp. | Humidity | Pressure | Rain* | Wind** | Luminosity | Snow |
|---|---|---|---|---|---|---|---|
| 1777929636 | 18.33° C | 44% | 1004 hPa | 0 mm | - | - | - |
| 1777929335 | 18.33° C | 45% | 1004.1 hPa | 0 mm | - | - | - |
| 1777929035 | 18.33° C | 44% | 1004.1 hPa | 0 mm | - | - | - |
| 1777924828 | 19.44° C | 44% | 1004.2 hPa | 0 mm | - | - | - |
| 1777924529 | 19.44° C | 43% | 1004.1 hPa | 0 mm | - | - | - |
| 1777923628 | 19.44° C | 44% | 1004.1 hPa | 0 mm | - | - | - |
| 1777922429 | 19.44° C | 46% | 1004.2 hPa | 0 mm | - | - | - |
| 1777919427 | 20.56° C | 47% | 1004 hPa | 0 mm | - | - | - |
| 1777917928 | 20.56° C | 48% | 1003.7 hPa | 0 mm | - | - | - |
| 1777916727 | 21.11° C | 48% | 1003.5 hPa | 0 mm | - | - | - |
| 1777916427 | 21.11° C | 47% | 1003.7 hPa | 0 mm | - | - | - |
| 1777913726 | 21.67° C | 46% | 1003.9 hPa | 0 mm | - | - | - |
| 1777905025 | 22.22° C | 47% | 1004.4 hPa | 0 mm | - | - | - |
| 1777902324 | 21.67° C | 49% | 1004.7 hPa | 0 mm | - | - | - |
| 1777900824 | 22.22° C | 46% | 1004.8 hPa | 0 mm | - | - | - |
| 1777899024 | 21.11° C | 49% | 1005.2 hPa | 0 mm | - | - | - |
| 1777897825 | 21.11° C | 49% | 1005.2 hPa | 0 mm | - | - | - |
| 1777893624 | 20° C | 46% | 1005.6 hPa | 0 mm | - | - | - |
| 1777891824 | 20° C | 51% | 1005.8 hPa | 0 mm | - | - | - |
| 1777890322 | 19.44° C | 46% | 1005.9 hPa | 0 mm | - | - | - |
| 1777888223 | 18.89° C | 50% | 1006 hPa | 0 mm | - | - | - |
| 1777885823 | 18.33° C | 50% | 1006.7 hPa | 0 mm | - | - | - |
| 1777885223 | 18.33° C | 49% | 1006.7 hPa | 0 mm | - | - | - |
| 1777881622 | 17.22° C | 52% | 1006.4 hPa | 0 mm | - | - | - |
| 1777881323 | 16.67° C | 51% | 1006.4 hPa | 0 mm | - | - | - |
* Rain latest hour (hover to see other rain measurements)
** Current wind speed in m/s (hover to see current wind gust speed)